Location: Boiro
(42.6475°N, 8.8834°W)
Time: 16:43:33
(UTC+01:00)

Vanguard 2 - Pass Details

Date: 06 December 2021
Orbit: 553 x 2936 km, 32.9° (Epoch: 21 January)

Event Time Altitude Azimuth Distance (km) Brightness Sun altitude
Rises 15:33:09 0° 246° (WSW) 2,860 11.4 18.6°
Reaches altitude 10° 15:35:21 10° 235° (SW) 2,087 11.2 18.4°
Maximum altitude 15:39:32 31° 172° (S) 1,413 9.9 18.0°
Drops below altitude 10° 15:45:27 10° 113° (ESE) 3,009 10.5 17.4°
Sets 15:49:17 0° 105° (ESE) 4,386 11.2 17.0°
